TITAN 4B R/B

基本信息
目录编号:
28647
目录名称:
TITAN 4B R/B
国际标识:
2005-016B
轨道中心:
EARTH
物体状态:
在轨
发射日期:
2005-04-30 UTC
国别:
美国 (US)
轨道信息
数据来源: 国际轨道数据
星历时间: 2026-07-14T05:18:55+0800
半长轴: 6802.944km
偏心率: 0.0048382
轨道倾角: 56.996°
近地点辐角: 256.214°
升交点赤经: 61.941°
平近点角: 103.353°
近地点: 391.892km
远地点: 457.722km
周期: 93.069分钟
每日圈数: 15.472391
详细信息
发射场:
AFETR
轨道高度:
LEO
数据来源:
AOE Integration Group
参考系:
TEME
时间系统:
UTC
历元类型:
SGP4
2D轨道图
3D轨道图
轨道高度分析图
轨道倾角分析图
轨道综合分析图
查看轨道综合分析图